| time (UTC) | temp C | wind direction | speed KPH | gust KPH | rain 1hr cm | rain 24hr cm | rain mn cm | humidity % | barometer mb |
| 20260507010205 | 9 | 212 | 0.0 | 1.6 | 0.00 | 0.94 | 0.00 | 76 | 1005.6 |
| 20260507004205 | 10 | 212 | 0.0 | 0.0 | 0.00 | 1.14 | 0.00 | 76 | 1005.8 |
| 20260507003704 | 10 | 212 | 0.0 | 1.6 | 0.00 | 1.14 | 0.00 | 76 | 1005.8 |
| 20260507001204 | 10 | 212 | 0.0 | 0.0 | 0.00 | 1.27 | 0.00 | 74 | 1005.8 |
| 20260506233204 | 11 | 212 | 0.0 | 1.6 | 0.00 | 1.27 | 0.00 | 67 | 1005.7 |
| 20260506231705 | 12 | 212 | 0.0 | 1.6 | 0.00 | 1.27 | 0.00 | 69 | 1005.6 |
| 20260506223705 | 12 | 212 | 0.0 | 1.6 | 0.00 | 1.27 | 0.00 | 69 | 1005.7 |
| 20260506221705 | 13 | 212 | 0.0 | 3.2 | 0.00 | 1.27 | 0.00 | 66 | 1005.7 |
| 20260506220205 | 13 | 212 | 1.6 | 4.8 | 0.00 | 1.27 | 0.00 | 64 | 1005.6 |
| 20260506213706 | 13 | 212 | 0.0 | 4.8 | 0.00 | 1.27 | 1.27 | 61 | 1005.6 |
| 20260506213206 | 13 | 212 | 1.6 | 4.8 | 0.00 | 1.27 | 1.27 | 60 | 1005.6 |
| 20260506211205 | 13 | 212 | 0.0 | 3.2 | 0.00 | 1.27 | 1.27 | 53 | 1005.3 |
| 20260506210705 | 13 | 212 | 1.6 | 9.7 | 0.00 | 1.27 | 1.27 | 55 | 1005.3 |
| 20260506204705 | 14 | 212 | 0.0 | 1.6 | 0.00 | 1.27 | 1.27 | 61 | 1005.3 |
| 20260506204205 | 14 | 212 | 0.0 | 0.0 | 0.00 | 1.27 | 1.27 | 58 | 1005.3 |
| 20260506203705 | 14 | 212 | 0.0 | 4.8 | 0.00 | 1.27 | 1.27 | 58 | 1005.3 |
| 20260506203204 | 14 | 212 | 3.2 | 11.3 | 0.00 | 1.27 | 1.27 | 57 | 1005.3 |
| 20260506201205 | 15 | 212 | 0.0 | 4.8 | 0.00 | 1.27 | 1.27 | 57 | 1004.6 |
| 20260506193204 | 14 | 212 | 0.0 | 3.2 | 0.00 | 1.27 | 1.27 | 62 | 1003.7 |
| 20260506191705 | 13 | 212 | 0.0 | 3.2 | 0.00 | 1.27 | 1.27 | 65 | 1003.7 |
| 20260506190705 | 14 | 212 | 0.0 | 0.0 | 0.00 | 1.27 | 1.27 | 72 | 1003.7 |
| 20260506190204 | 14 | 212 | 0.0 | 1.6 | 0.00 | 1.27 | 1.27 | 73 | 1003.2 |
| 20260506184204 | 15 | 212 | 0.0 | 0.0 | 0.00 | 1.27 | 1.27 | 69 | 1003.2 |
| 20260506183205 | 16 | 212 | 0.0 | 3.2 | 0.00 | 1.27 | 1.27 | 70 | 1003.2 |
| 20260506181704 | 17 | 212 | 0.0 | 0.0 | 0.00 | 1.27 | 1.27 | 66 | 1003.0 |
| 20260506181204 | 17 | 212 | 1.6 | 4.8 | 0.00 | 1.27 | 1.27 | 65 | 1003.0 |
| 20260506174204 | 17 | 212 | 0.0 | 3.2 | 0.00 | 1.27 | 1.27 | 59 | 1002.7 |
| 20260506173704 | 17 | 212 | 0.0 | 0.0 | 0.00 | 1.27 | 1.27 | 62 | 1002.7 |
| 20260506171205 | 18 | 212 | 0.0 | 3.2 | 0.00 | 1.27 | 1.27 | 53 | 1002.7 |
| 20260506170204 | 18 | 212 | 0.0 | 1.6 | 0.00 | 1.27 | 1.27 | 54 | 1002.7 |
| 20260506164704 | 18 | 212 | 0.0 | 0.0 | 0.00 | 1.27 | 1.27 | 54 | 1002.7 |
| 20260506164205 | 18 | 212 | 0.0 | 1.6 | 0.00 | 1.27 | 1.27 | 53 | 1002.7 |
| 20260506163705 | 18 | 212 | 0.0 | 1.6 | 0.00 | 1.27 | 1.27 | 54 | 1002.7 |
| 20260506161705 | 18 | 212 | 1.6 | 4.8 | 0.00 | 1.27 | 1.27 | 49 | 1002.7 |
| 20260506160205 | 18 | 211 | 4.8 | 14.5 | 0.00 | 1.27 | 1.27 | 50 | 1002.7 |
| 20260506150205 | 21 | 308 | 3.2 | 11.3 | 0.00 | 1.27 | 1.27 | 56 | 1002.6 |
| 20260506144204 | 21 | 308 | 0.0 | 3.2 | 0.00 | 1.27 | 1.27 | 56 | 1002.6 |
| 20260506141704 | 20 | 308 | 1.6 | 4.8 | 0.00 | 1.27 | 1.27 | 59 | 1002.7 |
| 20260506140705 | 20 | 308 | 3.2 | 4.8 | 0.00 | 1.27 | 1.27 | 59 | 1002.7 |
| 20260506134705 | 20 | 342 | 3.2 | 4.8 | 0.00 | 1.27 | 1.27 | 65 | 1003.1 |
| 20260506134204 | 20 | 342 | 1.6 | 8.0 | 0.00 | 1.27 | 1.27 | 65 | 1003.1 |
| 20260506133704 | 20 | 342 | 3.2 | 4.8 | 0.00 | 1.27 | 1.27 | 65 | 1003.1 |
| 20260506133204 | 20 | 342 | 3.2 | 9.7 | 0.00 | 1.27 | 1.27 | 65 | 1003.1 |
| 20260506130705 | 20 | 11 | 1.6 | 4.8 | 0.00 | 1.27 | 1.27 | 71 | 1003.5 |
| 20260506124205 | 20 | 11 | 1.6 | 4.8 | 0.00 | 1.27 | 1.27 | 76 | 1003.5 |
| 20260506123704 | 19 | 11 | 3.2 | 4.8 | 0.00 | 1.27 | 1.27 | 78 | 1003.6 |
| 20260506123204 | 19 | 11 | 3.2 | 9.7 | 0.00 | 1.27 | 1.27 | 79 | 1003.6 |
| 20260506121705 | 18 | 11 | 1.6 | 8.0 | 0.00 | 1.27 | 1.27 | 81 | 1003.6 |
| 20260506120205 | 17 | 11 | 0.0 | 8.0 | 0.00 | 1.27 | 1.27 | 87 | 1003.6 |
| 20260506113704 | 17 | 11 | 1.6 | 3.2 | 0.00 | 1.27 | 1.27 | 87 | 1003.6 |
| 20260506111704 | 17 | 11 | 3.2 | 8.0 | 0.08 | 1.27 | 1.27 | 91 | 1004.1 |
| 20260506111205 | 17 | 11 | 3.2 | 4.8 | 0.08 | 1.27 | 1.27 | 92 | 1004.1 |
| 20260506110204 | 17 | 11 | 1.6 | 8.0 | 0.10 | 1.27 | 1.27 | 92 | 1004.1 |
| 20260506104205 | 16 | 10 | 3.2 | 4.8 | 0.20 | 1.27 | 1.27 | 94 | 1004.1 |
| 20260506103704 | 16 | 11 | 1.6 | 4.8 | 0.20 | 1.27 | 1.27 | 94 | 1003.9 |
| 20260506103204 | 16 | 11 | 1.6 | 4.8 | 0.18 | 1.24 | 1.24 | 92 | 1003.9 |
| 20260506101704 | 16 | 11 | 0.0 | 0.0 | 0.13 | 1.19 | 1.19 | 92 | 1003.9 |
| 20260506100705 | 16 | 11 | 0.0 | 0.0 | 0.13 | 1.19 | 1.19 | 92 | 1003.9 |
| 20260506093705 | 16 | 11 | 0.0 | 3.2 | 0.00 | 1.07 | 1.07 | 93 | 1003.7 |
| 20260506091204 | 16 | 11 | 0.0 | 3.2 | 0.00 | 1.07 | 1.07 | 94 | 1003.5 |
| 20260506090204 | 16 | 11 | 1.6 | 4.8 | 0.00 | 1.07 | 1.07 | 96 | 1003.5 |
| 20260506083704 | 15 | 5 | 0.0 | 4.8 | 0.00 | 1.12 | 1.07 | 96 | 1003.3 |
| 20260506081204 | 15 | 5 | 3.2 | 4.8 | 0.00 | 1.37 | 1.07 | 98 | 1003.4 |
| 20260506080704 | 15 | 5 | 1.6 | 4.8 | 0.00 | 1.45 | 1.07 | 98 | 1003.4 |
| 20260506070704 | 13 | 5 | 0.0 | 1.6 | 0.03 | 2.57 | 1.07 | 99 | 1004.2 |
| 20260506070204 | 13 | 5 | 0.0 | 9.7 | 0.03 | 2.62 | 1.07 | 99 | 1004.2 |
| 20260506061704 | 13 | 5 | 0.0 | 0.0 | 0.13 | 3.05 | 1.07 | 98 | 1004.2 |
| 20260506061204 | 12 | 5 | 0.0 | 1.6 | 0.13 | 3.05 | 1.04 | 98 | 1004.2 |
| 20260506050704 | 12 | 5 | 0.0 | 3.2 | 0.23 | 3.28 | 0.91 | 97 | 1004.7 |
| 20260506044704 | 12 | 5 | 0.0 | 1.6 | 0.28 | 3.28 | 0.91 | 97 | 1004.7 |
| 20260506044204 | 12 | 5 | 0.0 | 0.0 | 0.25 | 3.25 | 0.89 | 97 | 1004.7 |
| 20260506043703 | 12 | 5 | 0.0 | 1.6 | 0.25 | 3.25 | 0.89 | 97 | 1004.7 |
| 20260506040704 | 12 | 5 | 0.0 | 0.0 | 0.08 | 3.07 | 0.69 | 97 | 1004.5 |
| 20260506040204 | 12 | 5 | 0.0 | 0.0 | 0.05 | 3.05 | 0.66 | 97 | 1004.5 |
| 20260506034705 | 12 | 5 | 0.0 | 0.0 | 0.03 | 3.05 | 0.64 | 97 | 1004.5 |
| 20260506034204 | 12 | 5 | 0.0 | 0.0 | 0.03 | 3.05 | 0.64 | 97 | 1004.5 |
| 20260506033204 | 12 | 5 | 0.0 | 0.0 | 0.05 | 3.07 | 0.64 | 97 | 1004.6 |
| 20260506030204 | 12 | 5 | 0.0 | 1.6 | 0.15 | 3.05 | 0.61 | 97 | 1004.6 |
| 20260506024704 | 12 | 5 | 0.0 | 1.6 | 0.20 | 3.05 | 0.61 | 97 | 1004.6 |
| 20260506023204 | 13 | 5 | 0.0 | 0.0 | 0.23 | 3.02 | 0.58 | 97 | 1004.6 |
| 20260506021204 | 13 | 5 | 0.0 | 4.8 | 0.18 | 2.97 | 0.53 | 96 | 1004.9 |
| 20260506020204 | 13 | 5 | 0.0 | 1.6 | 0.10 | 2.90 | 0.46 | 96 | 1004.9 |
| 20260506013704 | 13 | 5 | 0.0 | 3.2 | 0.25 | 2.82 | 0.38 | 96 | 1005.5 |
| 20260506013204 | 13 | 5 | 0.0 | 4.8 | 0.23 | 2.79 | 0.36 | 96 | 1005.5 |
| 20260506010704 | 13 | 5 | 0.0 | 0.0 | 0.36 | 2.79 | 0.36 | 96 | 1006.3 |